User: anonymous   Login
Location: Unspecified
(0.0000°N, 0.0000°E)
Time: 03:31:21
(UTC+00:00)
Language:

Sich 1 - Orbit

View from above orbital plane
View from above orbital plane
View from above satellite
View from above satellite

Ground track
Ground track

The orbit data is extracted from the following two-line orbital elements,

1 23657U 95046A   17112.92762768 +.00000414 +00000-0 +44744-4 0  9992
2 23657 082.5249 312.7143 0020683 264.7102 095.1755 14.85804920168960
Epoch (UTC): 22 April 2017 22:15:47
Eccentricity: 0.0020683
inclination: 82.5249°
perigee height: 596 km
apogee height: 625 km
right ascension of ascending node: 312.7143°
argument of perigee: 264.7102°
revolutions per day: 14.85804920
mean anomaly at epoch: 95.1755°
orbit number at epoch: 16896

The dashed part of the orbit path shows where the satellite is in the earth's shadow,  

DLR